COSMOS 1823 DEB, 39814

Orbit data source: Space-Track

COSMOS 1823 DEB, 39814 is space debris in LEO originally from a launch on Fri, 20 Feb 1987 UTC launched from the Plesetsk Missile And Space Complex (PKMTR). Debris objects in space refer to the collection of defunct objects orbiting the Earth. Examples of debris include non-operational satellites, rocket bodies, and fragments generated from explosions, collisions, or faulty payload assembly.

Loading next visibility...
Identifier
39814, 1987-020EN
Orbit
LEO
Country
Flag of CISCIS
Related business
Manufacturer
Unknown
Mission
Spacecraft
Bus & Motor
Unknown
Mass
Unknown
Launch date (UTC)
1987-02-20 (39 years ago)
Launch vehicle
Unknown
Launch site
Plesetsk Missile And Space Complex (PKMTR)
Object type
Payload
Rocket body
Debris
Shape & HBR
Unknown shape, 0.1 m
Radar Cross Section
Small (<0.1 m²)

Expand to show TLE details & history
Last TLE update: 2 days ago

TLE from 2 days ago
0 COSMOS 1823 DEB
1 39814U 87020EN  26171.22596691  .00000018  00000-0  25255-3 0  9990
2 39814  73.6132  16.8115 0026997 178.6963 181.4157 12.43166808546421
Epoch: 2026-06-20T05:25Z
TLE epoch observation values (Epoch: 2026-06-20T05:25:23.541Z)
Latitude
0.00001°
Longitude
27.01978°
Altitude
1,516.804 km
Speed
7.097 km/s
True Right ascension
01h 07m 14s
True Declination
0° 00' 00"
Sunlit
Object was in daylight at epoch
Visualization orbit readout
Latitude
Unknown
Longitude
Unknown
Altitude
Unknown
Speed
Unknown
Apparent Right ascension
Unknown
Apparent Declination
Unknown
Sunlit
N/A
Visualization observer readout
Local Sidereal Time
01:45:27
Azimuth
Unknown
Elevation
Unknown
Doppler factor
Unknown
Orbital elements
Apogee altitude
1,512.327 km
Perigee altitude
1,469.838 km
Semi-major axis
7,869.22 km
Eccentricity
0.0027
Inclination
73.6132°
RAAN
16.8115°
Arg. of periapsis
178.6963°
True anomaly
181.40808°
Mean anomaly
181.4157°
Eccentric anomaly
181.41189°
Mean motion
3.10918 °/min
Orbital period
115.79 mins
BSTAR
0.00025255
Loading maneuver chart data...
Computing Atmospheric mass density...

Documentation

Showing up to 5 results
|